Погода в Украинском

Украина / Харьковская область     49°00′00″N   36°04′56″E
темп.,
°C
ветер,
м/с
пор.,
м/с
влажн.,
%
обл.,
%
осадки,
мм/ч
давл.,
гПа
погр.,
м
13 апреля, вт
вт1300:00+12ю248398 0.1 1022169
03:00+11ююз2381100 0.1 1022115
06:00+10ююз2283100 0.0 102272
09:00+10ююз1182100 0.0 102290
12:00+11юз2176100 0.0 1021371
15:00+10юз3378100 0.1 1021300
18:00+10ю237688 0.0 1021231
21:00+10ююв247692 0.0 1021100
14 апреля, ср
ср1400:00+9юв2379100 0.0 102081
03:00+9ююв238499 0.0 102086
06:00+8ююз238528 0.0 101965
09:00+10ю2370100 0.0 1018347
12:00+13ююв3458100 0.0 1018998
15:00+15ю344791 0.0 10161448
18:00+16ююз2348100 0.0 10151456
21:00+12юв3768100 0.1 1016284
15 апреля, чт
чт1500:00+12ююз367154 0.0 1015244
03:00+8ю347647 0.0 101577
06:00+7ююв338098 0.0 101563
09:00+11ю4560100 0.0 1015465
12:00+15ююв454710 0.0 10141254
15:00+14ю566084 0.1 1013912
18:00+10ю4686100 2.6 1013372
21:00
16 апреля, пт
пт1600:00+8ю378621 0.1 1013219
03:00+8ююз378572 0.1 1013541
06:00+5ю49915 0.0 1014342
09:00+7ююз6875100 0.0 10141107
12:00+9ююз686698 0.1 10151246
15:00+11ю576199 0.4 10151383
18:00+10ююз5672100 0.6 1016961
21:00+8ю33677 0.0 101755
17 апреля, сб
сб1700:00+6ююз228038 0.0 101729
03:00+6юв238366 0.1 101876
06:00+5ю2390100 0.0 101864
09:00+9ююз33675 0.0 1019661
12:00+11юз345798 0.1 10191523
15:00+10юз226099 0.1 1020734
18:00+11зюз115567 0.0 1020939
21:00+8з22755 0.0 102028